Location: Carnoy
(49.9849°N, 2.7558°E)
Time: 18:44:33
(UTC+00:00)

STARLINK-1124 - Pass Details

Date: 24 January 2020
Orbit: 349 x 350 km, 53.0° (Epoch: 16 February)

Event Time Altitude Azimuth Distance (km) Brightness Sun altitude
Rises 17:05:18 0° 265° (W) 2,160 8.4 -6.1°
Reaches altitude 10° 17:07:20 10° 271° (W) 1,319 6.9 -6.4°
Maximum altitude 17:10:13 51° 349° (N) 450 3.1 -6.8°
Drops below altitude 10° 17:13:06 10° 67° (ENE) 1,323 4.9 -7.2°
Enters shadow 17:13:07 10° 68° (ENE) 1,330 4.9 -7.2°
